Theta_e
304 303 302 302 302 303 301 298 296 295 295 294 294 294 294 294 294 291 286 288 284 278 278 280 279 275 275 274 270 272 270 265 263 262 257 264 259 262 260 265 259 261 261 256 260 257 255 268 270 265 267 260 260 260
303 302 302 302 302 301 298 297 295 295 294 294 294 294 294 293 293 292 284 287 288 280 279 283 282 282 280 279 275 274 271 265 270 268 262 264 260 261 261 259 268 265 268 267 264 264 269 269 268 267 261 265 262 266
303 301 301 301 301 300 297 295 294 294 293 293 293 293 293 293 292 291 286 286 283 278 277 276 275 281 283 282 282 273 269 275 270 275 270 269 265 269 261 262 267 270 271 269 267 269 268 267 270 268 267 270 272 271
301 301 300 301 300 297 296 294 293 293 293 292 292 292 292 292 292 292 285 285 284 279 272 273 280 276 279 280 280 280 277 272 271 273 272 269 260 271 268 270 269 272 271 269 270 272 270 270 273 274 271 268 271 271
301 300 300 300 297 296 294 293 292 292 292 291 291 291 291 292 291 289 287 286 285 278 265 269 275 275 276 276 276 277 275 271 273 271 270 266 271 270 269 269 270 273 270 270 269 272 272 272 273 275 274 273 272 272
300 300 300 298 296 294 293 292 291 292 290 290 290 291 290 290 291 283 274 279 283 283 271 264 271 267 266 270 271 273 272 272 274 272 270 272 276 274 269 263 272 272 275 276 272 271 273 273 274 274 274 274 274 272
299 300 298 296 294 293 292 291 291 290 289 289 290 290 290 290 286 279 275 280 286 281 273 264 264 269 263 266 262 264 264 271 272 271 269 272 275 276 269 262 271 272 272 271 269 270 270 271 270 271 270 270 270 268
299 299 296 294 293 292 291 290 289 289 289 289 290 290 289 288 284 276 281 287 286 278 272 263 264 266 267 264 265 258 262 266 271 270 270 266 272 273 267 270 271 270 269 267 268 267 268 269 268 268 267 266 265 268
298 296 294 293 292 291 290 289 289 288 288 289 289 287 280 274 271 275 286 286 282 275 263 260 260 260 268 264 263 265 265 263 264 260 263 264 264 266 267 268 268 266 265 265 264 263 263 261 264 264 262 262 263 266
295 294 293 292 291 290 289 288 287 288 288 287 279 273 267 271 283 282 274 273 268 270 266 267 263 263 269 264 262 261 262 260 260 260 261 259 260 266 266 264 265 265 263 261 258 261 259 260 259 259 259 260 262 263
293 292 292 291 290 289 288 288 287 287 285 276 269 267 273 280 272 266 265 269 271 266 269 269 269 265 270 263 262 265 258 257 257 258 259 255 258 265 264 264 261 260 260 258 257 259 259 259 258 259 258 257 259 260
292 291 291 290 289 288 288 287 287 281 278 277 276 273 269 265 262 262 262 266 267 267 265 265 264 267 266 269 263 264 261 259 257 256 256 255 263 264 263 261 260 259 257 255 251 255 258 259 259 258 256 256 261 257
291 290 290 290 289 289 288 288 288 287 280 271 266 264 265 262 260 258 256 260 259 260 259 261 262 265 265 268 261 263 260 259 257 255 258 261 262 264 260 258 257 254 252 251 253 255 254 252 253 254 255 255 257 256
290 290 290 289 289 289 288 287 288 282 272 265 262 260 259 257 261 260 260 260 263 262 261 260 259 263 263 263 260 258 258 257 256 255 258 261 263 261 258 253 249 254 253 252 254 255 251 251 252 253 254 258 260 259
289 289 288 288 288 288 288 288 285 273 268 264 263 258 255 259 259 257 252 257 259 256 260 260 260 265 261 260 261 257 257 257 259 260 263 263 261 258 256 251 251 253 254 254 255 254 251 250 251 254 253 255 260 260
288 288 285 288 288 289 288 282 272 268 264 262 260 258 253 257 258 255 251 254 256 260 258 260 258 258 257 262 258 256 260 259 262 264 263 261 259 257 252 249 249 253 254 255 256 254 248 247 247 246 245 247 247 248
288 281 288 288 288 288 285 272 268 262 263 261 261 252 255 254 259 256 254 257 258 257 256 256 259 258 263 263 259 263 260 263 263 263 261 260 258 256 252 248 247 247 249 254 255 255 249 246 244 248 253 251 247 245
281 283 288 289 282 280 272 268 264 261 260 260 261 258 251 254 253 251 251 252 259 255 255 259 262 257 260 260 259 264 263 263 263 263 262 260 257 253 248 248 249 247 245 246 248 251 252 253 254 252 250 250 249 250
282 285 288 287 280 273 269 269 267 262 262 256 254 252 250 251 252 250 249 251 253 257 260 260 257 255 256 253 256 258 257 258 260 260 260 258 255 251 251 249 247 247 247 246 247 248 248 249 251 251 253 252 251 250
288 287 287 286 280 271 266 263 262 260 259 259 254 253 252 253 249 244 246 250 260 263 257 256 256 252 255 255 257 257 258 259 258 258 260 259 256 251 251 246 247 246 246 246 246 250 250 252 252 252 251 250 249 251
283 283 284 276 270 270 267 262 260 260 256 256 251 250 252 249 249 250 252 255 257 255 255 250 247 252 257 256 256 256 256 257 257 257 256 256 256 252 248 247 245 244 246 245 246 250 249 250 252 253 249 250 250 251
274 280 272 274 267 265 263 260 260 257 256 252 252 248 249 250 249 250 253 254 255 249 247 248 252 256 254 253 253 254 254 255 256 255 255 252 254 250 248 246 247 247 246 248 249 251 254 255 254 256 255 255 255 252
277 274 268 268 264 262 258 257 258 254 256 252 249 251 251 252 254 257 254 251 247 247 246 249 251 252 252 253 255 255 255 253 254 253 252 250 246 242 243 245 244 246 249 251 250 251 253 257 258 257 257 254 254 253
274 266 262 259 260 256 254 251 252 251 251 250 249 250 252 254 256 254 253 245 246 247 246 247 249 253 253 255 254 254 253 253 253 252 249 249 248 248 244 245 245 246 248 251 251 255 256 257 258 256 254 252 250 249
266 260 259 255 253 256 250 249 248 251 249 245 251 250 254 255 255 252 250 247 243 244 247 249 250 252 253 253 254 252 252 252 252 251 250 248 247 247 248 245 246 248 249 252 253 254 256 256 254 253 252 251 250 249
260 256 254 252 250 252 251 248 247 249 245 249 251 253 253 255 253 252 251 246 245 248 249 248 250 251 252 253 252 253 253 252 250 250 251 249 249 248 247 246 247 251 252 252 251 252 254 253 253 251 249 249 252 251
253 256 252 249 250 249 250 250 253 255 253 252 253 253 255 253 251 252 250 249 247 248 252 252 252 251 251 252 253 253 252 251 252 252 252 251 252 250 249 249 250 252 252 253 252 252 252 251 250 249 249 248 247 247
251 247 254 250 249 249 252 253 255 254 253 252 254 254 254 255 254 251 248 248 248 251 252 251 252 252 252 252 252 251 251 250 251 252 251 252 251 250 250 252 253 258 256 256 256 255 251 250 250 250 249 249 249 248
249 245 251 250 252 253 253 255 251 249 250 253 255 254 254 253 252 249 249 252 252 251 251 251 251 251 250 250 250 249 250 250 252 252 252 251 250 252 253 252 252 253 254 254 258 258 253 251 250 248 248 248 248 246
250 247 251 253 254 251 248 250 249 250 252 253 253 253 253 252 251 252 252 251 251 250 250 250 248 248 248 250 250 251 251 252 253 253 253 252 252 251 252 254 254 253 252 252 255 256 260 253 253 249 249 249 250 250
251 251 253 253 251 249 249 250 251 253 253 253 252 253 253 251 253 251 251 251 250 248 248 248 249 249 249 249 249 251 253 253 252 252 252 250 249 250 253 253 250 250 251 251 250 249 248 248 246 247 249 250 251 251
249 248 253 251 250 249 250 251 253 254 253 253 253 252 251 251 251 252 251 250 250 250 251 250 249 249 250 250 250 249 252 250 252 253 254 252 252 254 252 250 249 249 250 249 248 248 248 248 248 248 250 251 253 254
244 243 245 250 251 251 252 253 253 253 253 251 251 249 247 249 251 252 252 252 251 251 250 250 250 250 250 250 249 248 251 251 254 258 259 259 258 255 250 248 248 249 250 248 248 248 249 249 250 251 252 254 255 256
Wind_Speed
25 25 24 23 21 21 17 13 11 11 11 12 13 13 15 15 16 9 4 7 4 8 14 16 19 14 8 9 11 8 6 4 2 1 2 3 1 3 3 4 4 4 3 3 3 2 8 5 3 5 7 3 2 3
26 25 23 24 22 15 12 13 13 12 12 13 13 14 16 17 17 14 5 4 6 8 9 16 19 19 15 17 8 4 5 3 3 2 1 2 4 3 1 4 1 4 3 2 7 7 4 6 5 2 4 4 5 3
25 24 25 25 21 19 17 14 13 12 11 14 15 15 17 18 19 15 6 2 3 6 6 5 10 15 11 14 12 6 2 6 4 5 2 4 6 2 2 5 3 3 3 3 1 3 6 6 4 3 6 5 4 5
24 25 25 24 20 18 16 14 10 9 13 15 15 17 19 20 21 19 6 3 3 3 7 11 3 6 4 7 12 15 15 1 3 3 4 3 3 4 3 3 4 3 4 4 5 8 4 4 5 5 3 3 5 4
26 24 24 23 17 17 14 11 9 11 14 15 17 18 20 21 22 13 2 7 7 4 3 7 6 3 3 2 6 9 9 5 5 3 5 4 4 2 3 1 7 5 6 3 3 4 5 6 3 3 5 4 7 6
26 25 25 20 19 16 14 11 10 12 12 15 17 19 21 21 18 3 5 2 2 5 1 4 4 4 4 3 2 5 4 5 4 3 3 4 5 3 3 4 3 3 4 3 5 4 5 8 7 4 4 4 5 8
27 26 23 22 20 17 14 11 10 10 12 16 17 20 23 22 9 4 5 4 9 3 1 5 6 4 1 2 2 2 2 3 3 3 4 3 3 8 3 3 4 6 6 6 3 7 5 3 4 8 4 4 1 2
28 27 26 23 20 16 13 10 9 11 14 16 18 23 24 17 5 2 4 5 3 2 2 2 6 5 3 3 3 0 2 2 1 2 2 2 3 2 3 3 7 7 11 2 8 2 8 11 9 7 4 0 2 5
29 27 26 23 20 17 14 10 10 12 12 14 20 18 3 4 2 2 14 12 3 4 3 2 3 5 1 2 2 3 2 2 2 1 1 1 2 2 1 3 6 5 4 11 15 14 8 3 7 7 5 5 4 4
31 29 24 22 19 17 13 10 10 9 9 9 5 4 4 3 8 8 4 3 3 1 2 3 1 4 2 3 4 2 1 1 2 3 2 3 3 1 3 3 5 7 6 7 7 8 8 8 6 8 5 5 5 5
30 29 26 23 20 16 13 11 8 4 6 3 2 2 3 7 4 3 1 3 3 2 3 3 4 2 2 1 3 1 2 1 2 4 1 2 3 1 4 4 4 5 4 5 7 10 8 9 10 11 11 6 6 6
29 27 25 22 19 16 14 12 5 3 3 4 3 2 3 4 3 3 2 1 1 1 2 1 2 3 4 1 1 2 2 2 4 1 3 3 3 2 5 7 9 8 7 9 4 8 8 8 8 7 8 8 6 5
28 25 23 21 20 16 13 9 9 7 6 4 5 4 3 2 3 4 2 3 3 2 2 2 3 1 3 1 1 1 0 4 1 3 4 4 2 2 5 6 7 6 6 6 7 5 6 7 6 3 6 5 6 3
26 24 21 19 15 14 8 8 12 8 6 4 3 3 3 4 3 3 4 4 4 3 2 2 3 2 1 1 1 1 1 1 2 1 4 1 2 5 4 3 4 10 8 8 7 6 6 7 6 5 5 6 1 3
22 19 17 16 15 10 11 13 13 4 4 3 4 4 5 3 2 2 1 2 3 2 2 2 2 1 2 1 2 2 2 4 5 4 1 1 4 4 6 6 6 7 7 7 5 5 6 6 5 5 8 8 6 4
20 15 7 13 11 15 17 14 5 3 4 4 1 1 1 3 4 2 1 3 2 2 2 2 1 1 5 3 2 7 3 5 1 1 1 2 4 5 5 5 5 6 6 6 5 4 3 4 4 3 5 6 6 5
17 3 14 16 13 18 17 5 4 4 5 2 4 1 3 1 5 4 4 4 2 4 2 2 2 10 1 3 3 3 4 1 1 1 0 1 3 6 6 6 4 5 5 5 4 4 3 3 3 2 6 6 5 3
3 5 16 20 11 7 3 3 5 4 4 4 2 4 3 3 3 3 4 3 4 4 3 5 1 1 4 3 3 2 1 1 1 1 1 0 3 4 3 5 5 4 4 4 3 4 3 5 5 3 4 4 4 4
6 8 19 21 8 5 4 1 3 4 6 2 2 1 2 3 3 1 0 1 2 2 3 1 2 4 5 3 3 1 1 1 2 3 2 3 2 3 4 3 3 3 4 3 4 3 2 2 1 3 3 3 2 2
21 20 19 21 9 4 3 1 2 4 2 3 2 2 3 3 2 1 1 1 3 2 1 3 6 4 3 1 1 1 0 1 2 3 0 1 1 3 4 3 3 4 3 4 3 4 4 3 2 3 3 2 2 3
9 5 13 7 3 3 3 3 1 2 2 2 1 1 3 3 2 1 2 2 2 4 4 4 3 2 1 1 1 1 1 1 1 1 1 3 2 2 3 3 3 2 3 2 2 4 3 2 3 3 2 2 2 2
2 11 4 4 4 3 4 3 2 1 3 1 1 1 1 2 2 3 2 2 4 4 3 2 0 1 1 0 0 1 0 2 1 2 3 3 3 3 3 2 3 3 2 2 1 2 4 3 3 3 2 2 2 2
11 5 4 3 4 3 2 1 2 2 1 2 2 3 3 2 3 1 1 2 3 2 2 1 1 1 3 3 2 2 2 2 1 1 2 2 2 3 2 3 2 2 3 2 1 3 3 5 3 2 2 3 2 3
7 5 4 3 3 4 2 3 3 3 2 2 2 4 3 3 0 1 4 3 3 1 2 2 1 1 1 1 1 1 0 1 1 1 1 1 1 2 3 3 2 2 3 4 3 3 3 2 3 2 3 3 3 3
6 2 4 2 2 4 4 1 2 2 4 3 2 4 2 1 1 2 4 4 2 1 1 1 1 1 1 0 1 1 1 1 1 1 1 1 0 2 2 2 2 3 2 2 3 3 3 2 3 3 3 3 4 4
4 1 6 6 0 5 6 5 5 7 4 3 6 2 1 2 0 6 3 2 2 2 2 1 1 1 1 2 1 1 1 2 2 1 2 2 1 2 0 1 2 3 1 1 2 3 4 3 3 4 4 5 3 2
4 5 1 1 4 4 3 1 1 3 4 5 3 2 2 2 5 3 1 2 2 2 2 2 2 2 2 2 2 2 1 2 4 3 1 3 3 3 3 2 2 3 2 3 2 1 1 3 2 3 2 1 1 0
4 5 8 4 2 1 5 3 4 6 4 2 3 3 5 5 3 1 3 3 2 1 2 2 3 3 3 3 2 1 3 1 3 1 1 2 2 2 3 4 4 8 4 3 3 2 1 1 3 3 2 1 2 2
2 2 5 3 2 2 1 4 4 1 1 2 3 2 2 1 1 1 2 1 0 0 1 1 1 1 2 2 2 2 2 0 2 2 1 1 1 2 2 2 3 2 2 2 5 3 4 3 3 3 3 2 2 2
2 1 5 2 4 3 2 1 2 1 1 1 1 1 0 1 1 1 1 0 0 1 1 2 2 0 1 1 2 1 1 1 1 1 3 2 3 2 2 2 2 2 2 1 2 4 6 5 4 4 3 4 4 3
1 2 4 3 2 1 0 1 1 1 1 1 1 0 1 2 2 2 2 1 1 0 1 2 2 1 1 1 1 0 0 1 1 3 3 2 2 3 3 2 2 1 1 1 2 3 2 3 2 2 4 5 5 3
2 2 4 4 1 1 1 1 2 1 2 1 1 0 0 0 1 2 2 2 1 0 2 1 1 2 2 2 2 2 5 3 3 3 3 3 4 3 2 2 1 1 3 4 3 3 3 4 3 4 3 4 4 5
3 2 3 4 4 3 3 3 2 2 1 1 1 1 1 1 1 2 1 2 2 3 3 2 3 3 4 4 3 3 4 4 6 8 8 8 6 4 1 0 2 3 4 4 4 3 4 4 2 2 3 4 5 5
Wind_Direction
229 232 236 240 246 232 218 223 231 245 255 268 279 290 294 294 298 304 255 195 228 272 276 265 273 266 270 274 294 314 323 334 16 15 137 298 317 288 327 274 209 187 148 199 102 136 280 175 130 150 216 327 226 223
231 231 237 238 244 223 203 224 235 244 261 272 285 287 291 298 300 304 272 206 220 246 263 278 273 269 263 254 259 206 220 188 240 260 264 285 309 297 271 286 53 285 201 197 191 215 236 222 218 236 167 185 226 217
224 233 240 242 212 199 209 219 232 246 270 275 279 289 291 297 297 296 277 218 227 266 266 262 240 257 236 223 209 244 248 195 215 184 230 233 250 199 255 248 254 250 169 235 77 274 233 237 247 200 200 219 220 230
220 226 233 242 190 192 205 219 236 256 267 275 286 289 296 295 295 295 276 199 228 283 281 291 299 275 230 205 205 211 235 306 130 152 245 239 188 209 242 261 248 248 158 224 251 284 297 293 239 231 235 213 241 188
216 222 230 207 185 200 201 209 227 255 267 281 288 293 295 302 307 307 185 217 217 187 248 288 304 294 1 347 225 219 220 190 223 216 216 225 219 190 256 277 253 187 213 219 242 284 231 258 255 197 228 222 210 183
214 216 212 182 190 186 194 204 230 251 272 285 288 296 304 298 302 39 323 318 179 161 227 299 275 300 329 6 304 231 188 210 207 205 218 234 221 171 255 231 291 296 332 7 272 327 267 270 278 255 249 251 214 200
209 201 185 179 178 186 193 205 232 260 275 282 294 300 302 304 296 170 214 184 151 123 338 316 306 288 250 333 332 356 331 212 169 224 219 219 213 200 194 233 350 355 344 323 28 337 316 352 313 326 284 292 271 205
200 188 173 170 176 178 184 203 235 258 276 291 305 304 310 312 333 3 274 246 98 72 88 237 272 339 19 314 322 193 344 329 194 259 343 20 301 290 243 314 344 349 327 320 356 350 266 292 296 293 316 87 217 219
182 170 166 169 169 174 183 202 236 257 284 306 312 323 22 39 67 224 300 296 159 156 193 137 185 267 351 268 237 341 72 329 296 56 353 38 332 221 332 317 334 345 332 299 316 306 313 315 320 337 330 327 269 265
162 160 167 163 168 174 181 207 233 262 300 345 36 37 330 244 286 324 11 144 56 202 39 246 86 273 53 358 305 12 39 264 314 261 314 60 264 2 57 290 295 317 320 337 321 323 338 323 337 325 291 289 273 273
158 159 161 165 167 170 188 215 227 279 74 50 54 240 243 334 54 32 229 195 143 149 200 236 182 246 305 138 249 183 237 269 3 269 97 324 297 276 316 331 310 312 314 284 257 272 272 269 289 303 306 283 283 279
156 156 160 161 162 177 196 215 182 124 168 182 194 64 10 39 32 84 253 286 168 127 328 116 255 206 283 169 123 298 214 48 249 324 66 299 252 296 351 331 330 341 331 316 270 287 294 295 294 294 293 291 296 278
151 158 160 161 172 188 202 211 131 164 100 56 52 43 46 291 37 127 236 314 27 304 254 356 313 231 328 203 288 23 259 229 61 38 234 231 286 324 341 324 318 326 331 319 322 313 319 305 318 299 304 289 301 63
152 158 159 163 179 192 201 131 154 118 80 82 95 298 160 296 228 185 187 183 228 171 248 166 255 206 233 333 179 137 238 37 352 332 237 249 298 317 325 310 355 332 335 327 322 323 326 339 335 330 328 313 356 64
141 147 158 173 187 163 152 161 130 63 105 132 106 232 217 247 269 249 252 359 259 156 101 355 315 217 287 274 187 87 1 262 213 231 218 19 334 338 330 333 325 321 324 323 310 319 331 345 354 4 3 352 16 39
150 154 168 178 176 152 146 110 60 81 50 107 135 102 252 56 288 339 212 251 200 146 66 69 218 22 261 187 140 220 175 229 227 218 17 346 346 338 316 308 303 306 306 310 316 323 341 15 12 320 321 19 14 18
159 128 176 174 161 153 128 92 77 59 156 156 261 43 138 142 206 213 163 226 180 77 242 123 205 219 292 226 247 201 215 278 325 332 346 35 341 325 314 305 311 319 321 337 329 349 325 291 282 34 29 342 348 342
82 156 150 140 112 87 47 63 88 104 218 212 197 225 210 200 176 262 235 229 110 151 119 220 302 278 225 212 246 132 40 340 288 358 344 78 8 324 282 288 312 309 323 326 331 323 358 22 36 13 321 311 320 352
153 168 154 143 125 103 114 81 98 187 222 199 272 216 190 249 259 88 220 257 197 204 98 48 206 216 235 217 186 208 46 29 326 320 304 111 51 325 320 322 302 341 356 345 351 338 319 310 299 318 325 350 359 335
169 172 171 155 111 103 91 346 53 118 196 236 79 225 206 205 267 32 331 196 150 151 98 204 219 219 178 212 31 65 2 345 308 308 87 145 11 343 357 336 320 303 317 347 332 357 357 353 322 341 336 343 9 331
115 158 103 89 71 78 112 138 19 179 143 187 263 86 267 3 3 11 235 183 83 204 226 208 210 201 31 264 153 125 36 31 291 252 281 291 338 338 333 321 325 9 45 356 354 329 2 321 293 313 320 316 305 290
106 94 83 35 77 47 80 12 115 144 112 203 30 56 322 320 266 247 176 104 221 229 181 176 158 100 352 322 167 105 296 283 254 272 266 288 293 354 341 336 352 338 320 274 289 311 314 306 304 317 345 344 26 21
83 61 54 59 80 70 183 355 101 17 126 269 23 13 284 259 227 79 254 235 249 231 196 151 241 239 224 269 152 123 54 7 252 249 270 260 264 250 272 291 235 331 334 312 297 286 293 308 321 349 29 37 43 34
51 65 111 133 95 164 32 30 28 58 52 41 104 278 268 221 191 74 250 251 250 322 36 316 325 319 154 189 179 181 260 333 298 255 123 261 340 298 209 255 287 261 241 284 293 303 304 325 0 50 58 68 44 58
104 207 117 145 10 107 98 59 11 90 219 217 165 289 261 63 179 244 232 270 302 273 254 323 257 225 212 144 141 183 171 50 10 295 247 212 278 325 328 299 276 260 297 348 351 330 325 3 42 63 54 64 67 38
182 235 149 182 204 145 177 149 194 207 171 192 227 253 47 102 201 248 233 231 231 203 203 198 214 304 238 206 189 188 190 168 136 243 258 186 153 137 167 12 349 302 255 293 313 337 357 6 62 72 57 35 34 47
143 188 182 221 119 113 56 343 160 136 176 202 206 145 118 208 243 254 288 220 190 225 204 208 207 214 239 256 267 264 240 192 214 238 211 200 220 203 175 195 244 248 307 292 296 272 308 353 70 90 101 336 301 304
171 154 160 199 80 150 137 149 169 199 204 194 97 181 196 202 244 238 210 243 211 301 284 256 226 215 237 245 237 262 291 283 276 260 235 231 219 210 223 244 248 272 266 255 254 246 208 185 177 178 161 154 305 310
88 245 91 87 99 70 173 175 203 214 187 140 163 195 226 225 213 219 250 193 136 288 331 358 329 310 277 248 229 227 208 296 103 110 111 207 326 284 249 281 283 275 258 269 293 195 176 165 159 154 161 166 240 278
188 160 97 92 138 192 232 146 158 162 36 54 63 111 44 260 237 150 171 164 108 226 238 248 254 262 290 33 320 334 216 180 44 145 159 191 218 281 308 303 304 312 322 2 52 54 51 45 37 24 21 18 18 5
111 86 83 65 102 250 122 132 113 116 101 86 46 102 149 309 301 202 197 186 188 155 42 3 342 230 177 12 52 25 198 229 234 294 247 246 260 260 263 271 270 291 351 116 106 85 84 54 59 63 53 39 7 6
56 95 126 117 133 174 163 176 145 117 125 143 103 302 307 51 299 274 205 145 97 38 241 191 252 293 222 227 238 240 245 266 271 266 275 252 248 249 271 273 297 119 110 111 108 104 90 102 75 48 39 9 354 347
77 68 54 117 125 174 172 164 164 125 80 95 62 353 327 133 186 267 271 200 188 221 246 241 239 241 243 238 233 252 255 244 265 270 256 237 231 239 198 133 125 122 122 106 99 97 104 109 90 54 14 11 356 355